Location: Chervonnoye
(48.6000°N, 34.4000°E)
Time: 01:24:59
(UTC+00:00)

NOAA 15 - Pass Details

Date: 28 November 2021
Orbit: 797 x 812 km, 98.7° (Epoch: 17 January)

Event Time Altitude Azimuth Distance (km) Brightness Sun altitude
Rises 16:37:55 0° 171° (S) 3,319 7.7 -26.9°
Reaches altitude 10° 16:40:15 10° 173° (S) 2,391 7.0 -27.3°
Maximum altitude 16:45:32 69° 257° (WSW) 868 4.8 -28.2°
Drops below altitude 10° 16:50:49 10° 341° (NNW) 2,400 7.2 -29.0°
Sets 16:53:11 0° 344° (NNW) 3,333 8.0 -29.4°
